Regional Weather Roundup
Issued by NWS

Home | Current Version | Previous Version | Graphics & Text | Print | Product List | Glossary On
Versions: 1 2 3 4 5 6 7 8 9 10 11 12 13 14 15 16 17 18 19 20 21 22 23 24 25 26 27 28 29 30 31 32 33 34 35 36 37 38 39 40 41 42 43 44 45 46 47 48 49 50
000
ASUS44 KMEG 050110
RWRTN
TENNESSEE HOURLY STATE WEATHER ROUNDUP
NATIONAL WEATHER SERVICE MEMPHIS TN
800 PM CDT MON MAY 04 2015

TNZ002-004-019-021-049-052-054-088>092-050200-
WEST TENNESSEE

CITY           SKY/WX    TMP DP  RH WIND       PRES   REMARKS
MEMPHIS INTL   PTCLDY    77  54  44 S6        30.14S
NWS MEMPHIS      N/A     77 N/A N/A MISG        N/A
JACKSON        CLEAR     68  53  58 SE3       30.16S
DYERSBURG      CLEAR     73  45  35 CALM      30.15S
PARIS          CLEAR     70  54  56 S5        30.17S
LEXINGTON      CLEAR     70  55  60 CALM      30.18R
$$

TNZ008-025-027-028-033-062-065-066-050200-
NORTH MIDDLE TENNESSEE

CITY           SKY/WX    TMP DP  RH WIND       PRES   REMARKS
NASHVILLE      PTCLDY    74  54  49 S3        30.20R
CLARKSVILLE    CLEAR     72  55  55 S3        30.17S
SMYRNA         CLEAR     72  55  54 CALM      30.21R
COOKEVILLE     CLEAR     63  55  77 CALM      30.22S
CROSSVILLE     CLEAR     70  48  45 CALM      30.27R
$$

TNZ061-075-076-078-094-096-097-050200-
SOUTH MIDDLE TENNESSEE

CITY           SKY/WX    TMP DP  RH WIND       PRES   REMARKS
FAYETTEVILLE     N/A     70  52  52 CALM      30.23R
TULLAHOMA      CLEAR     68  52  56 CALM      30.25R
WINCHESTER     CLEAR     68  55  64 CALM      30.24R
MCMINNVILLE    PTCLDY    72  55  56 CALM      30.23S
COLUMBIA       CLEAR     72  55  56 SE3       30.19S
SHELBYVILLE    CLEAR     73  55  53 CALM      30.23R
$$

TNZ017-018-042-046-047-050200-
NORTHEAST TENNESSEE

CITY           SKY/WX    TMP DP  RH WIND       PRES   REMARKS
TRI CITIES     PTCLDY    67  50  54 CALM      30.25R
ELIZABETHTON   PTCLDY    61  52  72 CALM      30.27R
$$

TNZ012-013-036-069-073-074-050200-
CENTRAL EAST TENNESSEE

CITY           SKY/WX    TMP DP  RH WIND       PRES   REMARKS
KNOXVILLE      CLEAR     73  48  41 SW6       30.22S
OAK RIDGE      CLEAR     72  51  47 CALM      30.24R
GATLINBURG     CLEAR     70  50  49 CALM      30.23R
MORRISTOWN     CLEAR     72  52  49 CALM      30.26R
$$

TNZ083-085-099-050200-
SOUTHEAST TENNESSEE

CITY           SKY/WX    TMP DP  RH WIND       PRES   REMARKS
CHATTANOOGA    PTCLDY    71  53  52 CALM      30.23R
$$

SKY/WX REPORTED AS FAIR MEANS FEW OR NO CLOUDS BELOW
12 THOUSAND FEET.



USA.gov is the U.S. government's official web portal to all federal, state and local government web resources and services.